Location: French Creek State Gamelands
(40.1750°N, 75.7969°W)
Time: 05:55:29
(UTC-04:00)

ISS - All Passes

Search period start: 26 June 2016 00:00
Search period end: 06 July 2016 00:00
Orbit: 402 x 403 km, 51.6° (Epoch: 26 June)

Date Brightness Start Highest point End Pass type
(mag) Time Alt. Az. Time Alt. Az. Time Alt. Az.
26 Jun - 08:46:02 10° SSE 08:47:12 12° SE 08:48:23 10° ESE daylight
26 Jun - 10:19:58 10° WSW 10:23:13 73° NW 10:26:30 10° NE daylight
26 Jun - 11:57:57 10° WNW 12:00:08 16° NNW 12:02:19 10° NNE daylight
26 Jun - 13:36:30 10° NNW 13:37:38 11° N 13:38:45 10° NNE daylight
26 Jun - 15:12:24 10° NNW 15:15:01 22° NNE 15:17:39 10° ENE daylight
26 Jun - 16:48:28 10° WNW 16:51:41 59° SW 16:54:54 10° SE daylight
27 Jun - 09:27:18 10° SW 09:30:30 56° SE 09:33:42 10° ENE daylight
27 Jun - 11:04:29 10° WNW 11:07:09 22° NNW 11:09:48 10° NNE daylight
27 Jun - 12:43:23 10° NNW 12:44:32 11° N 12:45:40 10° NNE daylight
27 Jun - 14:19:54 10° NNW 14:22:02 16° NNE 14:24:11 10° ENE daylight
27 Jun - 15:55:42 10° NW 15:58:58 69° NE 16:02:12 10° ESE daylight
27 Jun - 17:33:37 10° WSW 17:34:59 12° SW 17:36:22 10° SSW daylight
28 Jun - 08:35:02 10° SSW 08:37:51 27° SE 08:40:41 10° ENE daylight
28 Jun - 10:11:13 10° W 10:14:13 33° NNW 10:17:15 10° NE daylight
28 Jun - 11:49:54 10° NW 11:51:26 13° N 11:52:57 10° NNE daylight
28 Jun - 13:27:21 10° NNW 13:28:59 13° N 13:30:37 10° NE daylight
28 Jun - 15:03:03 10° NW 15:06:08 37° NNE 15:09:13 10° E daylight
28 Jun - 16:39:46 10° WNW 16:42:27 23° SW 16:45:07 10° S daylight
29 Jun - 07:43:28 10° SSE 07:45:17 14° SE 07:47:07 10° E daylight
29 Jun - 09:18:09 10° WSW 09:21:23 59° NW 09:24:37 10° NE daylight
29 Jun - 10:56:20 10° NW 10:58:21 15° NNW 11:00:23 10° NNE daylight
29 Jun - 12:34:42 10° NNW 12:35:53 12° N 12:37:05 10° NNE daylight
29 Jun - 14:10:29 10° NNW 14:13:14 24° NNE 14:15:59 10° E daylight
29 Jun - 15:46:39 10° WNW 15:49:49 47° SW 15:52:57 10° SSE daylight
30 Jun - 08:25:23 10° SW 08:28:37 70° SE 08:31:52 10° ENE daylight
30 Jun - 10:02:49 10° WNW 10:05:20 20° NNW 10:07:51 10° NNE daylight
30 Jun - 11:41:41 10° NNW 11:42:45 11° N 11:43:51 10° NNE daylight
30 Jun - 13:17:56 10° NNW 13:20:14 17° NNE 13:22:32 10° ENE daylight
30 Jun - 14:53:48 10° NW 14:57:05 84° NE 15:00:21 10° SE daylight
01 Jul - 07:32:57 10° SSW 07:35:55 33° SE 07:38:54 10° ENE daylight
01 Jul - 09:09:28 10° W 09:12:22 29° NNW 09:15:18 10° NE daylight
01 Jul - 10:48:15 10° NNW 10:49:38 12° N 10:51:01 10° NNE daylight
01 Jul - 12:25:24 10° NNW 12:27:11 14° NNE 12:28:58 10° NE daylight
01 Jul - 14:01:06 10° NW 14:04:16 44° NNE 14:07:25 10° ESE daylight
01 Jul - 15:38:04 10° W 15:40:29 19° SW 15:42:55 10° S daylight
02 Jul - 06:41:04 10° S 06:43:18 17° SE 06:45:31 10° E daylight
02 Jul - 08:16:18 10° WSW 08:19:28 49° NNW 08:22:40 10° NE daylight
02 Jul - 09:54:39 10° NW 09:56:31 14° NNW 09:58:24 10° NNE daylight
02 Jul - 11:32:46 10° NNW 11:34:04 12° N 11:35:22 10° NNE daylight
02 Jul - 13:08:30 10° NW 13:11:21 27° NNE 13:14:13 10° E daylight
02 Jul - 14:44:47 10° WNW 14:47:52 38° SW 14:50:55 10° SSE daylight
03 Jul - 07:23:24 10° SW 07:26:39 86° SE 07:29:56 10° NE daylight
03 Jul - 09:01:05 10° WNW 09:03:27 18° NNW 09:05:50 10° NNE daylight
03 Jul - 10:39:51 10° NNW 10:40:55 11° N 10:41:59 10° NNE daylight
03 Jul - 12:15:55 10° NNW 12:18:21 19° NNE 12:20:47 10° ENE daylight
03 Jul - 13:51:51 10° NW 13:55:08 79° SW 13:58:23 10° SE daylight
04 Jul - 06:30:50 10° SSW 06:33:55 41° SE 06:37:01 10° ENE daylight
04 Jul - 08:07:38 10° W 08:10:26 26° NNW 08:13:16 10° NNE daylight
04 Jul - 09:46:30 10° NNW 09:47:46 12° N 09:49:01 10° NNE daylight
04 Jul - 11:23:21 10° NNW 11:25:17 15° NNE 11:27:13 10° NE daylight
04 Jul - 12:59:06 10° NW 13:02:19 53° NNE 13:05:31 10° ESE daylight
04 Jul - 14:36:21 10° W 14:38:27 16° SW 14:40:33 10° S daylight
05 Jul - 05:38:43 10° S 05:41:14 21° SE 05:43:46 10° E daylight
05 Jul - 07:14:23 10° WSW 07:17:30 41° NNW 07:20:38 10° NE daylight
05 Jul - 08:52:53 10° NW 08:54:37 13° NNW 08:56:20 10° NNE daylight
05 Jul - 10:30:44 10° NNW 10:32:10 12° N 10:33:36 10° NE daylight
05 Jul - 12:06:26 10° NW 12:09:24 31° NNE 12:12:21 10° E daylight
05 Jul - 13:42:53 10° WNW 13:45:49 31° SW 13:48:44 10° SSE daylight
